Find Yunyao-1 15

NORAD ID: 60745 Int'l Des: NNA 2024-153 Owner: YYAO Country: CN operational
LEOCIRCULARRETROGRADE

Current View

Loading 3D Globe...

About Yunyao-1 15

Yunyao-1 15 (NORAD 60745) is a satellite launched Aug 29, 2024 by YYAO of CN. It operates in LEO, CIRCULAR, RETROGRADE orbit with a mass of 50.00 kg.

Upcoming Passes

Passes for default location (London). Set your location on the main map for personalized predictions.

Altitude History

Loading altitude history...

Two-Line Element Set

1 60745U 24153A 26163.89086773 .00048225 00000-0 96066-3 0 9994
2 60745 97.6717 305.4168 0007349 158.9522 201.2031 15.46726625 99442
Epoch: Jun 12, 2026 • Age: 12 hours

Current Status

Altitude 454.5 km
Velocity 7.64 km/s
Sub-Earth Point -64.68°S, 82.08°W
Launch Date Aug 29, 2024
Age 1.7 years
Type other

Technical Details

Classification Payload
Mass 50.00 kg
Dry Mass 50.00 kg
Total Mass 50.00 kg
Length 2.00 m
Diameter 1.50 m
Span 5.00 m
Shape Box + pan
Manufacturer CGSTL
Bus Type YY-1
Phase Status In Orbit
Owner/State YYAO/CN

Most Searched